Tracking 25693 objects as of 1-Jul-2022
HD Live streaming from Space Station
objects crossing your sky now

DMSP 5D-2 F13 DEB

Track DMSP 5D-2 F13 DEB now!
10-day predictions


NORAD ID: 40570
Int'l Code: 1995-015ED
Perigee: 784.3 km
Apogee: 817.2 km
Inclination: 98.7 °
Period: 100.7 minutes
Semi major axis: 7171 km
RCS: Unknown
Launch date: March 24, 1995
Source: United States (US)
Launch site: AIR FORCE WESTERN TEST RANGE (AFWTR)

Note: This is SATELLITE DEBRIS
aabbcc
Your satellite tracking list
Your tracking list is empty




NASA's NSSDC Master Catalog

Two Line Element Set (TLE):
1 40570U 95015ED  22181.85229223  .00002342  00000-0  93265-3 0  9992
2 40570  98.6957 206.4070 0022982 104.6336 255.7396 14.29433519376449
Source of the keplerian elements: AFSPC